TimeCST,TemperatureF,Dew PointF,Humidity,Sea Level PressureIn,VisibilityMPH,Wind Direction,Wind SpeedMPH,Gust SpeedMPH,PrecipitationIn,Events,Conditions,WindDirDegrees,DateUTC
12:15 AM,27.1,14.9,60,30.28,10.0,West,3.5,-,N/A,,Clear,280,2012-12-22 06:15:00
12:35 AM,26.4,14.9,62,30.28,10.0,West,3.5,-,N/A,,Clear,270,2012-12-22 06:35:00
12:55 AM,28.6,14.0,54,30.29,10.0,West,4.6,-,N/A,,Clear,280,2012-12-22 06:55:00
1:15 AM,28.4,14.0,55,30.29,10.0,WNW,4.6,-,N/A,,Clear,300,2012-12-22 07:15:00
1:35 AM,28.6,14.0,54,30.30,10.0,West,5.8,-,N/A,,Clear,270,2012-12-22 07:35:00
1:55 AM,28.4,14.2,55,30.30,10.0,West,4.6,-,N/A,,Clear,280,2012-12-22 07:55:00
2:15 AM,28.4,13.8,54,30.30,10.0,West,4.6,-,N/A,,Clear,280,2012-12-22 08:15:00
2:35 AM,28.0,13.8,55,30.31,10.0,West,4.6,-,N/A,,Clear,280,2012-12-22 08:35:00
2:55 AM,28.2,13.5,54,30.31,10.0,West,3.5,-,N/A,,Clear,280,2012-12-22 08:55:00
3:15 AM,27.7,13.6,56,30.31,10.0,WNW,4.6,-,N/A,,Clear,290,2012-12-22 09:15:00
3:35 AM,27.5,14.0,57,30.30,10.0,WNW,3.5,-,N/A,,Clear,290,2012-12-22 09:35:00
3:55 AM,27.7,13.8,56,30.30,10.0,Calm,Calm,-,N/A,,Clear,0,2012-12-22 09:55:00
4:15 AM,22.1,14.9,74,30.31,10.0,Calm,Calm,-,N/A,,Clear,0,2012-12-22 10:15:00
4:35 AM,21.6,15.3,77,30.31,10.0,Calm,Calm,-,N/A,,Clear,0,2012-12-22 10:35:00
4:55 AM,21.7,17.1,82,30.31,10.0,Calm,Calm,-,N/A,,Clear,0,2012-12-22 10:55:00
5:15 AM,21.9,16.7,80,30.31,10.0,Calm,Calm,-,N/A,,Clear,0,2012-12-22 11:15:00
5:35 AM,22.5,16.5,78,30.32,10.0,Calm,Calm,-,N/A,,Clear,0,2012-12-22 11:35:00
5:55 AM,22.1,16.7,80,30.32,10.0,Calm,Calm,-,N/A,,Clear,0,2012-12-22 11:55:00
6:15 AM,21.2,16.9,83,30.32,10.0,Calm,Calm,-,N/A,,Clear,0,2012-12-22 12:15:00
6:35 AM,20.3,16.3,85,30.32,10.0,Calm,Calm,-,N/A,,Clear,0,2012-12-22 12:35:00
6:55 AM,20.1,16.9,87,30.33,10.0,Calm,Calm,-,N/A,,Clear,0,2012-12-22 12:55:00
7:15 AM,20.1,17.2,89,30.33,10.0,Calm,Calm,-,N/A,,Clear,0,2012-12-22 13:15:00
7:35 AM,20.1,16.9,87,30.33,10.0,Calm,Calm,-,N/A,,Clear,0,2012-12-22 13:35:00
7:55 AM,23.2,19.0,84,30.33,10.0,Calm,Calm,-,N/A,,Clear,0,2012-12-22 13:55:00
8:15 AM,25.9,19.4,76,30.33,10.0,Calm,Calm,-,N/A,,Clear,0,2012-12-22 14:15:00
8:35 AM,28.9,21.2,73,30.32,10.0,Calm,Calm,-,N/A,,Clear,0,2012-12-22 14:35:00
8:55 AM,30.9,18.9,61,30.33,10.0,SE,3.5,-,N/A,,Clear,140,2012-12-22 14:55:00
9:15 AM,32.0,17.4,55,30.32,10.0,ESE,4.6,-,N/A,,Clear,120,2012-12-22 15:15:00
9:35 AM,33.6,16.7,50,30.31,10.0,ESE,4.6,-,N/A,,Clear,120,2012-12-22 15:35:00
9:55 AM,34.7,18.5,52,30.30,10.0,ESE,5.8,-,N/A,,Clear,120,2012-12-22 15:55:00
10:15 AM,35.6,18.3,50,30.30,10.0,SE,3.5,-,N/A,,Clear,130,2012-12-22 16:15:00
10:35 AM,36.7,18.9,49,30.29,10.0,SSE,3.5,-,N/A,,Clear,150,2012-12-22 16:35:00
10:55 AM,37.9,18.0,45,30.28,10.0,SE,3.5,-,N/A,,Clear,130,2012-12-22 16:55:00
11:15 AM,38.8,17.4,42,30.27,10.0,Calm,Calm,-,N/A,,Clear,0,2012-12-22 17:15:00
11:35 AM,40.3,17.4,40,30.26,10.0,SSW,4.6,-,N/A,,Clear,210,2012-12-22 17:35:00
11:55 AM,41.2,17.1,38,30.26,10.0,SSW,4.6,-,N/A,,Clear,200,2012-12-22 17:55:00
12:15 PM,42.3,17.2,37,30.24,10.0,SSW,3.5,-,N/A,,Clear,200,2012-12-22 18:15:00
12:35 PM,43.2,16.0,33,30.22,10.0,South,4.6,-,N/A,,Clear,170,2012-12-22 18:35:00
12:55 PM,44.4,16.5,33,30.22,10.0,South,5.8,-,N/A,,Clear,180,2012-12-22 18:55:00
1:15 PM,45.0,16.9,32,30.21,10.0,SSW,4.6,-,N/A,,Clear,200,2012-12-22 19:15:00
1:35 PM,46.2,18.0,32,30.20,10.0,SSW,5.8,-,N/A,,Clear,200,2012-12-22 19:35:00
1:55 PM,46.2,17.4,32,30.19,10.0,SSW,5.8,-,N/A,,Clear,210,2012-12-22 19:55:00
2:15 PM,46.8,17.8,32,30.19,10.0,SSW,6.9,-,N/A,,Clear,200,2012-12-22 20:15:00
2:35 PM,47.3,18.0,31,30.17,10.0,South,6.9,-,N/A,,Clear,170,2012-12-22 20:35:00
2:55 PM,47.3,17.8,31,30.17,10.0,SSW,6.9,-,N/A,,Clear,200,2012-12-22 20:55:00
3:15 PM,47.3,18.1,31,30.16,10.0,South,4.6,-,N/A,,Clear,180,2012-12-22 21:15:00
3:35 PM,47.3,18.0,31,30.16,10.0,South,6.9,-,N/A,,Clear,170,2012-12-22 21:35:00
3:55 PM,46.8,18.7,33,30.16,10.0,South,6.9,-,N/A,,Clear,190,2012-12-22 21:55:00
4:15 PM,45.9,19.0,34,30.15,10.0,SSE,3.5,-,N/A,,Clear,160,2012-12-22 22:15:00
4:35 PM,44.6,19.0,36,30.14,10.0,SSE,3.5,-,N/A,,Clear,160,2012-12-22 22:35:00
4:55 PM,43.7,19.0,37,30.14,10.0,South,3.5,-,N/A,,Clear,170,2012-12-22 22:55:00
5:15 PM,42.6,20.1,41,30.13,10.0,SSE,3.5,-,N/A,,Clear,150,2012-12-22 23:15:00
5:35 PM,42.1,20.3,42,30.13,10.0,SSE,4.6,-,N/A,,Clear,160,2012-12-22 23:35:00
5:55 PM,41.9,20.3,42,30.12,10.0,SSE,3.5,-,N/A,,Clear,160,2012-12-22 23:55:00
6:15 PM,41.0,20.7,44,30.12,10.0,SSE,3.5,-,N/A,,Clear,150,2012-12-23 00:15:00
6:35 PM,40.1,21.0,47,30.11,10.0,SE,3.5,-,N/A,,Clear,140,2012-12-23 00:35:00
6:55 PM,39.7,21.0,47,30.11,10.0,SSE,3.5,-,N/A,,Clear,150,2012-12-23 00:55:00
7:15 PM,39.4,21.0,48,30.10,10.0,SSE,3.5,-,N/A,,Clear,150,2012-12-23 01:15:00
7:35 PM,39.0,21.0,49,30.09,10.0,SE,3.5,-,N/A,,Clear,140,2012-12-23 01:35:00
7:55 PM,37.4,21.7,53,30.09,10.0,Calm,Calm,-,N/A,,Clear,0,2012-12-23 01:55:00
8:15 PM,37.4,21.6,53,30.09,10.0,Calm,Calm,-,N/A,,Clear,0,2012-12-23 02:15:00
8:35 PM,37.4,21.6,53,30.08,10.0,SSE,3.5,-,N/A,,Clear,160,2012-12-23 02:35:00
8:55 PM,34.3,23.0,63,30.08,10.0,Calm,Calm,-,N/A,,Clear,0,2012-12-23 02:55:00
9:15 PM,32.0,22.5,68,30.08,10.0,Calm,Calm,-,N/A,,Clear,0,2012-12-23 03:15:00
9:35 PM,33.3,22.1,64,30.07,10.0,Calm,Calm,-,N/A,,Clear,0,2012-12-23 03:35:00
9:55 PM,30.9,23.2,73,30.07,10.0,Calm,Calm,-,N/A,,Clear,0,2012-12-23 03:55:00
10:15 PM,33.4,22.8,65,30.07,10.0,South,4.6,-,N/A,,Clear,170,2012-12-23 04:15:00
10:35 PM,37.9,23.0,55,30.06,10.0,South,4.6,-,N/A,,Clear,170,2012-12-23 04:35:00
10:55 PM,38.5,23.9,56,30.06,10.0,South,5.8,-,N/A,,Clear,190,2012-12-23 04:55:00
11:15 PM,38.8,24.8,57,30.06,10.0,South,6.9,-,N/A,,Clear,190,2012-12-23 05:15:00
11:35 PM,40.3,26.2,57,30.05,10.0,South,6.9,-,N/A,,Clear,190,2012-12-23 05:35:00
11:55 PM,41.4,26.6,56,30.04,10.0,South,6.9,-,N/A,,Clear,190,2012-12-23 05:55:00